Location: Brunsbüttel
(52.3892°N, 10.6138°E)
Time: 20:09:50
(UTC+00:00)

CENTAUR R/B - Pass Details

Date: 19 May 2025
Orbit: 644 x 1537 km, 63.4° (Epoch: 20 June)

Event Time Altitude Azimuth Distance (km) Brightness Sun altitude
Rises 23:12:44 0° 313° (NW) 4,090 6.4 -17.6°
Reaches altitude 10° 23:15:18 10° 312° (NW) 3,236 5.8 -17.6°
Maximum altitude 23:23:22 75° 230° (SW) 1,464 3.2 -17.6°
Enters shadow 23:31:31 15° 148° (SSE) 3,325 4.8 -17.5°
